Weather in Malchikha

Russia / Novosibirsk Oblast     55°49′07″N   82°32′39″E
temp.,
°C
wind,
m/s
gust,
m/s
humid.,
%
clouds,
%
prec.,
mm/h
press.,
hPa
HPBL,
m
28 february, sun
sun2801:00−30ssw239851 0.0 103767
04:00−31ssw239861 0.0 103756
07:00−31s239859 0.0 103835
10:00−28s259759 0.0 1036165
13:00−22sse359568 0.0 1034300
16:00−18se369191 0.0 1031427
19:00−19ese229795 0.0 102845
22:00−19e259894 0.1 1026145
1 march, mon
mon101:00−17e379695 0.1 1023207
04:00−15e3796100 0.1 1019237
07:00−13e3895100 0.7 1016286
10:00−11ene4895100 0.9 1013309
13:00−8ene5994100 1.6 1010449
16:00−8ne51195100 1.1 1008490
19:00−9ne51094100 2.4 1007493
22:00−12ne41094100 0.9 1008471
2 march, tue
tue201:00−14nne4994100 1.3 1010406
04:00−17nne279799 0.0 1012182
07:00−19nne239998 0.1 101551
10:00−18ne239798 0.0 1016166
13:00−12e119199 0.1 1018366
16:00−11se0189100 0.3 1017437
19:00−13ese1297100 0.4 101726
22:00−15ese1297100 0.2 101740
3 march, wed
wed301:00−16ese129793 0.3 101621
04:00−16e119794 0.1 101620
07:00−16ene119792 0.1 101620
10:00−15ene129691 0.1 1016120
13:00−10e119094 0.2 1017398
16:00−8s1189100 0.1 1017446
19:00−11ssw1296100 0.4 101950
22:00−14sw229785 0.1 102036
4 march, thu
thu401:00−17ssw239778 0.1 102249
04:00−19ssw239947 0.0 102280
07:00−21s369854 0.0 1023135
10:00−18sse499692 0.0 1022276
13:00−12sse499396 0.0 1021431
16:00−9sse51092100 0.0 1019549
19:00−8sse41192100 0.1 1018616
22:00−9sse41291100 0.0 1015503